This demonstration page uses our WeatherBlox Daily Observations layout. Learn more.

Left ArrowRight Arrow

Hourly Observations for May 19, 2022

Temp ( °F °C ) Dew Point ( °F °C ) Humidity (%) Winds ( mph kmh ) Pressure ( in mb ) Visibility ( mi km ) Precip ( " mm )
12:56 am 00:56 Clear 67 19.4 55 12.6 65 65 SSE 3 6 29.75 1008 10 16 0.00 0.00
1:56 am 01:56 Clear 66 18.9 54 12.2 65 65 Calm 29.73 1007 10 16 0.00 0.00
2:56 am 02:56 Mostly Cloudy 64 17.8 56 13.1 74 74 Calm 29.71 1006 10 16 0.00 0.00
3:56 am 03:56 Mostly Clear 63 17.2 56 13.3 78 78 Calm 29.68 1005 10 16 0.00 0.00
4:56 am 04:56 Mostly Clear 63 17.2 56 13.3 78 78 ESE 3 6 29.66 1004 10 16 0.00 0.00
5:56 am 05:56 Mostly Cloudy 63 17.2 58 14.5 84 84 ESE 5 7 29.65 1004 10 16 0.00 0.00
6:56 am 06:56 Mostly Cloudy 64 17.9 60 15.3 85 85 E 6 9 29.65 1004 10 16 0.00 0.00
7:56 am 07:56 Mostly Sunny 67 19.4 62 16.6 84 84 SE 5 7 29.62 1003 10 16 0.00 0.00
8:56 am 08:56 Sunny 73 22.9 64 18 74 74 S 7 11 29.58 1002 10 16 0.00 0.00
9:56 am 09:56 Sunny 78 25.3 66 18.7 67 67 SSE 10 17 29.56 1001 10 16 0.00 0.00
10:56 am 10:56 Mostly Cloudy 81 27 64 18 58 58 S 16 26 29.53 1000 10 16 0.00 0.00
11:56 am 11:56 Partly Cloudy 83 28.4 67 19.6 59 59 S 21 33 29.49 999 10 16 0.00 0.00
12:56 pm 12:56 Sunny 87 30.4 64 17.8 47 47 SSW 18 30 29.44 997 9 14 0.00 0.00
1:56 pm 13:56 Sunny 90 32.2 59 14.8 35 35 S 22 35 29.39 995 8 13 0.00 0.00
2:56 pm 14:56 Sunny 91 33 56 13.1 30 30 SSW 23 37 29.36 994 8 13 0.00 0.00
3:56 pm 15:56 Mostly Sunny 92 33.1 56 13.2 30 30 SW 18 30 29.34 994 7 11 0.00 0.00
4:56 pm 16:56 Mostly Sunny 91 32.8 55 12.9 30 30 SW 18 30 29.31 993 9 14 0.00 0.00
5:56 pm 17:56 Mostly Sunny 91 32.8 54 12.4 29 29 SW 12 19 29.29 992 10 16 0.00 0.00
6:56 pm 18:56 Mostly Sunny 86 30.2 63 17.3 46 46 S 17 28 29.29 992 10 16 0.00 0.00
7:56 pm 19:56 Mostly Sunny 84 29 64 17.5 50 50 S 16 26 29.29 992 10 16 0.00 0.00
8:56 pm 20:56 Mostly Clear 82 27.6 62 16.8 52 52 S 15 24 29.28 992 10 16 0.00 0.00
9:56 pm 21:56 Clear 79 26.3 63 17.4 58 58 S 12 19 29.28 992 10 16 0.00 0.00
10:56 pm 22:56 Clear 78 25.6 64 18 63 63 S 12 19 29.29 992 10 16 0.00 0.00
11:00 pm 23:00 Mostly Clear 79 26 64 18 61 61 WNW 20 31 29.33 993 10 16 0.00 0.00
11:56 pm 23:56 Mostly Clear 66 18.7 51 10.8 60 60 NNW 20 31 29.38 995 10 16 0.00 0.00

Powered by AerisWeather